Location: Newark
(31.8769°N, 91.1411°W)
Time: 01:55:40
(UTC+00:00)

N. Korean satellite - Pass Details

Date: 26 January 2020
Orbit: 456 x 505 km, 97.2° (Epoch: 21 February)

Event Time Altitude Azimuth Distance (km) Brightness Sun altitude
Rises 11:37:32 0° 14° (NNE) 2,546 10.3 -17.9°
Reaches altitude 10° 11:39:36 10° 17° (NNE) 1,671 9.3 -17.5°
Maximum altitude 11:43:11 66° 101° (E) 539 7.0 -16.8°
Drops below altitude 10° 11:46:47 10° 183° (S) 1,686 9.4 -16.0°
Sets 11:48:53 0° 187° (S) 2,571 10.3 -15.6°
